Location: Andiroba
(19.8650°S, 43.9258°W)
Time: 00:34:01
(UTC+00:00)

Delta 7925 Rocket - Pass Details

Date: 15 June 2024
Orbit: 645 x 1644 km, 26.3° (Epoch: 24 July)

Event Time Altitude Azimuth Distance (km) Brightness Sun altitude
Exits shadow 07:51:41 44° 217° (SW) 1,083 3.9 -22.0°
Maximum altitude 07:53:06 57° 166° (SSE) 956 3.9 -21.7°
Drops below altitude 10° 07:59:23 10° 88° (E) 2,723 7.4 -20.3°
Sets 08:02:28 0° 84° (E) 3,842 8.6 -19.6°
